{"data":{"norad_id":60533,"epoch":"2026-05-25T04:14:29.687136Z","epoch_age_seconds":70440,"freshness":"FRESH","line1":"1 60533U 24149BT  26145.17673249  .00012147  00000+0  72612-3 0  9999","line2":"2 60533  97.6732 227.5414 0002011 112.4773 247.6669 15.11219344 97026","mean_motion":15.11219344,"eccentricity":0.0002011,"inclination_deg":97.6732,"raan_deg":227.5414,"arg_perigee_deg":112.4773,"mean_anomaly_deg":247.6669,"bstar":0.00072612,"rev_number":9702,"period_min":95.287292722743,"perigee_km":531.09050488035,"apogee_km":533.86995513026,"semimajor_km":6910.6172300053,"source":"CELESTRAK","updated_at":"2026-05-25T13:38:13.535576Z"}}